Location: Atherton
(17.2661°S, 145.4859°E)
Time: 22:28:30
(UTC+10:00)

Transit 2A - Pass Details

Date: 26 June 2025
Orbit: 598 x 948 km, 66.7° (Epoch: 19 July)

Event Time Altitude Azimuth Distance (km) Brightness Sun altitude
Rises 09:01:04 0° 345° (NNW) 3,359 9.6 26.5°
Reaches altitude 10° 09:03:25 10° 347° (NNW) 2,478 9.1 26.9°
Maximum altitude 09:09:12 72° 70° (ENE) 952 7.3 28.0°
Drops below altitude 10° 09:15:26 10° 153° (SSE) 2,662 8.7 29.2°
Sets 09:18:03 0° 155° (SSE) 3,626 9.3 29.6°
